DateTimeUTC,F1_A11,F1_S11,BsB_S11,BsG_S11,BsR_S11,BbsB_S11,BbsG_S11,BbsR_S11,BaB_A11,BaG_A11,BaR_A11,Tu_S11,T_S11,Uu_S11,U_S11,P_S11,T1_A11
2021-10-01T13:00:00Z,00000200,21000000,,,,,,,0000.38,0000.44,0000.17,16.7,23.7,,00.0,0672.3,30.9
2021-10-01T13:01:00Z,00000200,21000000,,,,,,,0000.08,-000.03,0000.01,16.7,23.7,,00.0,0672.3,30.9
2021-10-01T13:02:00Z,00000200,21000000,,,,,,,-000.10,0000.18,-000.03,16.7,23.7,,00.0,0672.3,31.0
2021-10-01T13:03:00Z,00000200,61000000,,,,,,,-000.18,-000.40,-000.35,16.7,23.7,,00.0,0672.3,31.0
2021-10-01T13:04:00Z,00000200,41000000,0000.22,0000.51,0000.62,-000.81,0000.30,0000.10,0000.15,0000.16,0000.15,17.1,23.7,00.2,00.2,0673.2,31.0
2021-10-01T13:05:00Z,00000200,01000000,0000.57,0000.24,0000.38,0000.52,-000.01,0000.14,0000.87,0001.03,0000.77,17.2,23.6,00.3,00.2,0673.3,31.0
2021-10-01T13:06:00Z,00000200,01000000,0000.28,0000.68,0000.23,-000.08,0000.54,0000.08,0000.51,0000.54,0000.27,17.2,23.6,00.5,00.3,0673.3,31.0
2021-10-01T13:07:00Z,00000200,01000000,0000.77,0000.40,0000.41,0000.14,-000.01,-000.06,0000.19,0000.30,0000.47,17.2,23.6,00.6,00.4,0673.3,31.0
2021-10-01T13:08:00Z,00000200,01000000,0000.90,0000.56,0000.43,-000.17,0000.40,0000.04,0000.49,0000.24,0000.11,17.1,23.6,00.8,00.5,0673.4,30.9
2021-10-01T13:09:00Z,00000200,01000000,0000.76,0000.22,0000.04,-000.15,0000.48,-000.26,0000.15,-000.13,0000.13,17.1,23.5,00.9,00.6,0673.4,30.9
2021-10-01T13:10:00Z,00000200,01000000,0001.06,0000.58,-000.10,-000.30,0000.28,0000.05,0000.28,0000.04,0000.10,17.1,23.5,00.8,00.6,0673.4,30.9
2021-10-01T13:11:00Z,00000200,01000000,0000.86,0000.59,0000.30,0000.65,0000.14,-000.12,-000.02,0000.51,-000.04,17.1,23.5,00.8,00.5,0673.4,30.9
2021-10-01T13:12:00Z,00000200,01000000,0001.09,-000.09,0000.13,-000.16,0000.25,0000.08,0000.17,-000.37,-000.20,17.0,23.5,00.8,00.5,0673.4,30.9
2021-10-01T13:13:00Z,00000200,01000000,0000.59,0000.17,-000.04,-000.54,0000.60,0000.06,-000.20,-000.02,-000.16,17.0,23.5,00.6,00.4,0673.4,30.9
2021-10-01T13:14:00Z,00000200,01000000,0001.28,0000.47,0000.15,-000.27,0000.24,-000.18,-000.19,0000.35,0000.11,17.1,23.5,00.5,00.4,0673.5,30.9
2021-10-01T13:15:00Z,00000200,01000000,0000.28,0000.43,0000.24,0000.36,0000.22,0000.13,-000.19,-000.19,0000.37,17.1,23.5,00.4,00.3,0673.5,30.9
2021-10-01T13:16:00Z,00000200,01000000,0000.38,0000.36,0000.22,-000.07,-000.11,0000.17,0000.25,-000.12,-000.06,17.2,23.6,00.4,00.2,0673.5,31.0
2021-10-01T13:17:00Z,00000200,01000000,0000.78,0000.41,0000.41,-000.12,0000.30,0000.01,0000.05,0000.52,-000.24,17.2,23.6,00.3,00.2,0673.4,31.0
2021-10-01T13:18:00Z,00000200,01000000,0000.30,0000.28,-000.01,0000.30,0000.19,-000.30,0000.34,0000.06,0000.40,17.3,23.6,00.3,00.2,0673.4,31.0
2021-10-01T13:19:00Z,00000200,01000000,0000.55,0000.28,0000.25,-000.27,0000.07,0000.13,0000.52,0000.57,0000.47,17.3,23.6,00.4,00.3,0673.4,31.0
2021-10-01T13:20:00Z,00000200,01000000,0001.32,0000.37,0000.03,-000.03,0000.47,-000.13,0000.33,0000.08,0000.02,17.3,23.6,00.6,00.4,0673.4,31.0
2021-10-01T13:21:00Z,00000200,01000000,0000.32,0000.58,0000.18,-000.21,0000.60,-000.28,0000.38,0000.18,0000.25,17.3,23.6,00.6,00.4,0673.4,30.9
2021-10-01T13:22:00Z,00000200,01000000,0000.33,0000.51,-000.02,0000.37,0000.21,-000.23,0000.28,0000.49,0000.34,17.3,23.6,00.7,00.5,0673.5,30.9
2021-10-01T13:23:00Z,00000200,01000000,0000.34,0000.23,-000.20,0000.05,0000.56,-000.10,-000.15,-000.14,0000.19,17.2,23.6,00.7,00.5,0673.5,30.9
2021-10-01T13:24:00Z,00000200,01000000,-000.33,0000.30,0000.04,0000.30,0000.54,0000.11,0000.49,0000.13,-000.25,17.2,23.6,00.8,00.5,0673.5,30.9
2021-10-01T13:25:00Z,00000200,01000000,0001.32,0000.22,0000.05,-000.05,0000.46,-000.20,-000.03,0000.04,0000.24,17.2,23.6,00.7,00.5,0673.5,30.9
2021-10-01T13:26:00Z,00000200,01000000,0000.27,0000.16,0000.27,0000.04,0000.02,0000.02,0000.29,0000.48,0000.20,17.2,23.6,00.7,00.5,0673.5,30.9
2021-10-01T13:27:00Z,00000200,01000000,0000.55,0000.15,0000.31,-000.44,-000.03,-000.28,0000.11,-000.02,0000.19,17.2,23.5,00.7,00.4,0673.5,30.9
2021-10-01T13:28:00Z,00000200,01000000,-000.13,0000.18,-000.13,0000.49,0000.04,0000.01,0000.68,0000.43,0000.29,17.2,23.5,00.7,00.5,0673.5,30.9
2021-10-01T13:29:00Z,00000200,01000000,0001.05,0000.40,0000.09,-000.18,0000.55,-000.20,0000.27,0000.42,-000.22,17.2,23.5,00.7,00.5,0673.5,30.9
2021-10-01T13:30:00Z,00000200,01000000,0000.67,0000.59,-000.15,0000.24,0000.35,-000.14,0000.09,-000.07,0000.42,17.3,23.5,00.8,00.5,0673.5,30.9
2021-10-01T13:31:00Z,00000200,01000000,0001.21,0000.26,0000.05,0000.13,0000.28,-000.25,-000.39,0000.09,-000.01,17.3,23.6,00.7,00.5,0673.4,31.0
2021-10-01T13:32:00Z,00000200,01000000,0000.91,0000.35,0000.01,-000.13,0000.14,-000.13,0000.02,-000.28,0000.05,17.4,23.6,00.5,00.3,0673.4,31.0
2021-10-01T13:33:00Z,00000200,01000000,0000.96,0000.40,0000.18,-000.15,0000.35,-000.16,-000.43,-000.11,-000.25,17.4,23.7,00.4,00.3,0673.4,31.0
2021-10-01T13:34:00Z,00000200,01000000,0000.48,0000.46,0000.00,0000.10,0000.11,-000.24,0000.11,-000.09,0000.06,17.4,23.7,00.3,00.2,0673.5,31.0
2021-10-01T13:35:00Z,00000200,01000000,0000.48,0000.31,0000.37,0000.11,0000.01,0000.19,0000.05,-000.18,-000.23,17.4,23.7,00.3,00.2,0673.4,31.0
2021-10-01T13:36:00Z,00000200,01000000,0000.11,0000.43,0000.03,-000.53,0000.34,-000.22,0000.00,0000.11,0000.04,17.4,23.6,00.2,00.1,0673.4,30.9
2021-10-01T13:37:00Z,00000200,01000000,0000.58,0000.28,-000.07,-000.60,0000.31,-000.38,0000.03,-000.25,-000.39,17.3,23.6,00.1,00.1,0673.5,30.9
2021-10-01T13:38:00Z,00000200,01000000,0000.85,0000.15,-000.01,-000.22,0000.02,-000.06,-000.22,0000.23,0000.14,17.3,23.6,00.2,00.1,0673.5,30.9
2021-10-01T13:39:00Z,00000200,01000000,0000.83,0000.23,-000.08,0000.26,0000.29,-000.08,0000.13,-000.00,0000.18,17.3,23.6,00.2,00.1,0673.5,30.9
2021-10-01T13:40:00Z,00000200,01000000,0000.81,0000.41,-000.15,-000.17,-000.13,-000.03,0000.11,-000.12,0000.26,17.2,23.6,00.1,00.1,0673.6,30.9
2021-10-01T13:41:00Z,00000200,01000000,0000.50,0000.37,0000.24,-000.41,0000.36,0000.10,0000.04,0000.10,-000.17,17.2,23.5,00.1,00.1,0673.6,30.9
2021-10-01T13:42:00Z,00000200,01000000,-000.22,0000.39,0000.41,-000.22,0000.32,-000.25,0000.52,0000.37,0000.07,17.2,23.5,00.1,00.1,0673.6,30.9
2021-10-01T13:43:00Z,00000200,01000000,-000.06,0000.45,0000.04,-000.26,0000.23,0000.41,0000.08,0000.31,0000.40,17.2,23.5,00.1,00.1,0673.6,30.9
2021-10-01T13:44:00Z,00000200,01000000,0000.52,0000.39,0000.58,-000.27,0000.33,-000.08,0000.10,0000.04,-000.18,17.2,23.5,00.1,00.1,0673.6,30.9
2021-10-01T13:45:00Z,00000200,01000000,0000.29,0000.45,0000.05,-000.00,0000.14,-000.01,0000.14,0000.30,0000.40,17.2,23.6,00.1,00.0,0673.6,30.9
2021-10-01T13:46:00Z,00000200,01000000,0000.03,0000.28,-000.02,0000.28,0000.41,-000.03,-000.02,-000.24,-000.39,17.3,23.6,00.1,00.1,0673.6,31.0
2021-10-01T13:47:00Z,00000200,01000000,0000.40,0000.27,0000.08,-000.35,0000.09,0000.07,0000.00,0000.26,0000.40,17.3,23.6,00.1,00.1,0673.6,31.0
2021-10-01T13:48:00Z,00000200,01000000,0000.10,0000.18,0000.01,-000.29,0000.37,-000.34,0000.17,0000.06,-000.43,17.3,23.6,00.1,00.1,0673.6,31.0
2021-10-01T13:49:00Z,00000200,01000000,0001.19,0000.49,0000.43,0000.19,0000.49,0000.25,0000.04,-000.06,0000.42,17.3,23.6,00.1,00.1,0673.6,31.0
2021-10-01T13:50:00Z,00000200,01000000,0000.85,0000.31,-000.28,0000.01,0000.29,-000.30,0000.26,-000.01,0000.10,17.3,23.6,00.1,00.0,0673.7,31.0
2021-10-01T13:51:00Z,00000200,01000000,0000.55,0000.17,-000.04,0000.12,0000.21,-000.31,0000.24,0000.33,0000.31,17.3,23.6,00.1,00.1,0673.6,30.9
2021-10-01T13:52:00Z,00000200,01000000,0000.58,0000.41,-000.11,0000.49,0000.37,-000.07,0000.42,0000.18,0000.05,17.2,23.6,00.1,00.1,0673.6,30.9
2021-10-01T13:53:00Z,00000200,01000000,0000.40,0000.35,0000.11,0000.35,0000.33,-000.23,0000.12,0000.41,0000.18,17.2,23.6,00.1,00.1,0673.6,30.9
2021-10-01T13:54:00Z,00000200,01000000,-000.01,0000.61,0000.25,0000.49,0000.20,0000.12,0000.14,0000.32,-000.06,17.2,23.6,00.1,00.1,0673.6,30.9
2021-10-01T13:55:00Z,00000200,01000000,-000.56,0000.47,0000.22,0000.17,0000.45,-000.19,0000.14,-000.10,0000.39,17.1,23.5,00.1,00.1,0673.6,30.9
2021-10-01T13:56:00Z,00000200,01000000,0000.01,0000.62,0000.09,0000.18,0000.23,-000.07,0000.17,0000.34,-000.12,17.1,23.5,00.1,00.1,0673.7,30.9
2021-10-01T13:57:00Z,00000200,41000000,,,,,,,0000.34,0000.34,0000.51,17.1,23.6,,00.0,0673.8,30.9
2021-10-01T13:58:00Z,00000200,61000000,,,,,,,-000.28,-000.35,-000.41,16.8,23.6,,00.0,0672.7,30.9
2021-10-01T13:59:00Z,00000200,21000000,,,,,,,0000.13,0000.22,0000.05,16.8,23.7,,00.0,0672.6,30.9
